ACA371 CYUL-CYWG

Flight info

Callsign ACA371
Flight time 2h 36m
Altitude 38000
Route KESKA DCT BIPKO DCT IPSAK DCT OMEGI DCT RADEN DCT OVORA DCT GABOV DCT GOVIT NORAK6
Aircraft A320/M-SDE3FGHIRWY/LB1

Departure

Time 2026-05-04 16:26
Airport Montreal / Pierre Elliott Trudeau International Airport (CYUL)

Arrival

Time 2026-05-04 19:03
Airport Winnipeg / James Armstrong Richardson International Airport (CYWG)
Time Latitude Longitude Altitude Speed Heading
2026-05-04 15:52 45.45978 -73.75543 105 ft 0 kts 178°
2026-05-04 16:12 45.46007 -73.75544 103 ft 4 kts 176°
2026-05-04 16:12 45.46062 -73.75586 104 ft 4 kts 91°
2026-05-04 16:13 45.46062 -73.75598 103 ft 0 kts 88°
2026-05-04 16:16 45.46088 -73.75375 103 ft 13 kts 31°
2026-05-04 16:17 45.46146 -73.75182 102 ft 11 kts 87°
2026-05-04 16:18 45.46153 -73.74978 105 ft 11 kts 87°
2026-05-04 16:18 45.46157 -73.74819 104 ft 15 kts 88°
2026-05-04 16:19 45.46129 -73.74432 103 ft 15 kts 88°
2026-05-04 16:19 45.46138 -73.74159 104 ft 12 kts 87°
2026-05-04 16:20 45.46292 -73.73858 106 ft 14 kts 43°
2026-05-04 16:20 45.46431 -73.73674 108 ft 13 kts 42°
2026-05-04 16:21 45.46700 -73.73322 112 ft 21 kts 43°
2026-05-04 16:22 45.46891 -73.73071 115 ft 16 kts 42°
2026-05-04 16:22 45.47146 -73.72737 117 ft 21 kts 43°
2026-05-04 16:23 45.47424 -73.72372 118 ft 15 kts 43°
2026-05-04 16:24 45.47786 -73.71898 122 ft 15 kts 43°
2026-05-04 16:25 45.47753 -73.71693 122 ft 10 kts 127°
2026-05-04 16:26 45.47047 -73.72462 116 ft 121 kts 223°
2026-05-04 16:26 45.44666 -73.75571 1705 ft 159 kts 228°
2026-05-04 16:27 45.44354 -73.78654 2610 ft 196 kts 298°
2026-05-04 16:28 45.47036 -73.84204 4533 ft 243 kts 301°
2026-05-04 16:28 45.49921 -73.90232 7533 ft 247 kts 300°
2026-05-04 16:29 45.53901 -73.98639 10603 ft 280 kts 300°
2026-05-04 16:30 45.57350 -74.05974 12566 ft 305 kts 301°
2026-05-04 16:31 45.59348 -74.10206 13876 ft 308 kts 302°
2026-05-04 16:31 45.63015 -74.17860 15983 ft 316 kts 304°
2026-05-04 16:32 45.66982 -74.25572 17961 ft 326 kts 304°
2026-05-04 16:33 45.69685 -74.30849 19138 ft 331 kts 304°
2026-05-04 16:33 45.72032 -74.36480 20321 ft 336 kts 290°
2026-05-04 16:34 45.72836 -74.43128 21494 ft 344 kts 278°
2026-05-04 16:34 45.73072 -74.46546 22053 ft 347 kts 279°
2026-05-04 16:35 45.73797 -74.56961 23597 ft 355 kts 279°
2026-05-04 16:35 45.74530 -74.67622 24884 ft 362 kts 280°
2026-05-04 16:36 45.74774 -74.71220 25305 ft 364 kts 280°
2026-05-04 16:36 45.75254 -74.78479 26088 ft 368 kts 281°
2026-05-04 16:37 45.75773 -74.85819 26868 ft 371 kts 284°
2026-05-04 16:37 45.76301 -74.89428 27233 ft 371 kts 287°
2026-05-04 16:37 45.77431 -74.96686 27992 ft 375 kts 288°
2026-05-04 16:38 45.78562 -75.04020 28702 ft 379 kts 288°
2026-05-04 16:39 45.80255 -75.15121 29704 ft 384 kts 288°
2026-05-04 16:39 45.81396 -75.22646 30243 ft 388 kts 287°
2026-05-04 16:40 45.82537 -75.30236 30717 ft 391 kts 287°
2026-05-04 16:40 45.83687 -75.37885 31203 ft 392 kts 286°
2026-05-04 16:41 45.84830 -75.45520 31856 ft 390 kts 285°
2026-05-04 16:41 45.86505 -75.56852 32857 ft 387 kts 284°
2026-05-04 16:42 45.88176 -75.68146 33832 ft 384 kts 284°
2026-05-04 16:43 45.89285 -75.75660 34264 ft 386 kts 283°
2026-05-04 16:43 45.90395 -75.83232 34635 ft 389 kts 283°
2026-05-04 16:43 45.90950 -75.87039 34805 ft 390 kts 283°
2026-05-04 16:44 45.93262 -76.02381 35492 ft 395 kts 289°
2026-05-04 16:45 45.95499 -76.09557 35800 ft 397 kts 295°
2026-05-04 16:46 45.99104 -76.20336 36274 ft 400 kts 295°
2026-05-04 16:46 46.01506 -76.27586 36566 ft 402 kts 295°
2026-05-04 16:47 46.03916 -76.34876 36878 ft 404 kts 295°
2026-05-04 16:47 46.06332 -76.42218 37156 ft 406 kts 295°
2026-05-04 16:48 46.09971 -76.53301 37570 ft 409 kts 295°
2026-05-04 16:48 46.11188 -76.57016 37708 ft 410 kts 295°
2026-05-04 16:49 46.16066 -76.71921 37724 ft 411 kts 294°
2026-05-04 16:50 46.20920 -76.86864 37720 ft 413 kts 294°
2026-05-04 16:51 46.24565 -76.98155 37729 ft 414 kts 294°
2026-05-04 16:52 46.29409 -77.13259 37718 ft 414 kts 294°
2026-05-04 16:53 46.33024 -77.24578 37720 ft 415 kts 294°
2026-05-04 16:54 46.37866 -77.39783 37717 ft 416 kts 294°
2026-05-04 16:55 46.45097 -77.62668 37721 ft 416 kts 294°
2026-05-04 16:56 46.51082 -77.81787 37723 ft 416 kts 294°
2026-05-04 16:57 46.54653 -77.93273 37732 ft 415 kts 294°
2026-05-04 16:58 46.59385 -78.08526 37716 ft 415 kts 294°
2026-05-04 17:00 46.66436 -78.31505 37710 ft 413 kts 294°
2026-05-04 17:01 46.72255 -78.50607 37705 ft 412 kts 294°
2026-05-04 17:02 46.76856 -78.65820 37700 ft 410 kts 293°
2026-05-04 17:03 46.80280 -78.77233 37691 ft 408 kts 293°
2026-05-04 17:03 46.83696 -78.88619 37686 ft 408 kts 293°
2026-05-04 17:04 46.88205 -79.03747 37676 ft 407 kts 292°
2026-05-04 17:05 46.92720 -79.18973 37662 ft 408 kts 292°
2026-05-04 17:06 46.96096 -79.30415 37650 ft 408 kts 292°
2026-05-04 17:07 46.99073 -79.40572 37654 ft 408 kts 292°
2026-05-04 17:07 47.01666 -79.49439 37646 ft 407 kts 292°
2026-05-04 17:08 47.04993 -79.60897 37640 ft 407 kts 292°
2026-05-04 17:09 47.07207 -79.68542 37643 ft 407 kts 292°
2026-05-04 17:09 47.09416 -79.76184 37635 ft 406 kts 292°
2026-05-04 17:10 47.14900 -79.95273 37623 ft 405 kts 291°
2026-05-04 17:11 47.17067 -80.02863 37631 ft 406 kts 291°
2026-05-04 17:12 47.20346 -80.14365 37622 ft 406 kts 291°
2026-05-04 17:13 47.25778 -80.33549 37598 ft 406 kts 291°
2026-05-04 17:14 47.30090 -80.48922 37583 ft 406 kts 290°
2026-05-04 17:15 47.33308 -80.60448 37583 ft 405 kts 290°
2026-05-04 17:16 47.37564 -80.75753 37575 ft 404 kts 290°
2026-05-04 17:17 47.41802 -80.91117 37572 ft 404 kts 290°
2026-05-04 17:18 47.46024 -81.06508 37580 ft 404 kts 290°
2026-05-04 17:19 47.50210 -81.21895 37561 ft 405 kts 290°
2026-05-04 17:20 47.54394 -81.37375 37544 ft 405 kts 290°
2026-05-04 17:20 47.57514 -81.48960 37535 ft 405 kts 290°
2026-05-04 17:21 47.61673 -81.64481 37529 ft 405 kts 289°
2026-05-04 17:22 47.63389 -81.70940 37526 ft 405 kts 289°
2026-05-04 17:23 47.67514 -81.86507 37520 ft 405 kts 289°
2026-05-04 17:24 47.70586 -81.98187 37505 ft 405 kts 289°
2026-05-04 17:25 47.74667 -82.13777 37503 ft 404 kts 288°
2026-05-04 17:26 47.78723 -82.29341 37494 ft 405 kts 288°
2026-05-04 17:27 47.83757 -82.48875 37475 ft 405 kts 288°
2026-05-04 17:28 47.87763 -82.64517 37463 ft 404 kts 288°
2026-05-04 17:29 47.93739 -82.88003 37448 ft 404 kts 287°
2026-05-04 17:31 47.98673 -83.07627 37418 ft 404 kts 287°
2026-05-04 17:32 48.03564 -83.27263 37412 ft 406 kts 286°
2026-05-04 17:33 48.07493 -83.43164 37398 ft 409 kts 286°
2026-05-04 17:34 48.11432 -83.59161 37429 ft 410 kts 286°
2026-05-04 17:35 48.16341 -83.79337 37407 ft 415 kts 286°
2026-05-04 17:36 48.18308 -83.87468 37408 ft 416 kts 286°
2026-05-04 17:36 48.20260 -83.95565 37413 ft 416 kts 286°
2026-05-04 17:37 48.22226 -84.03740 37416 ft 417 kts 287°
2026-05-04 17:37 48.24197 -84.11946 37409 ft 418 kts 287°
2026-05-04 17:38 48.26164 -84.20170 37397 ft 419 kts 287°
2026-05-04 17:38 48.28124 -84.28414 37400 ft 419 kts 287°
2026-05-04 17:39 48.31053 -84.40814 37400 ft 420 kts 287°
2026-05-04 17:39 48.32990 -84.49047 37398 ft 421 kts 287°
2026-05-04 17:40 48.34945 -84.57356 37387 ft 421 kts 287°
2026-05-04 17:40 48.36887 -84.65674 37379 ft 422 kts 287°
2026-05-04 17:41 48.38817 -84.74002 37371 ft 422 kts 287°
2026-05-04 17:41 48.40753 -84.82338 37371 ft 422 kts 287°
2026-05-04 17:42 48.42682 -84.90683 37374 ft 422 kts 287°
2026-05-04 17:42 48.44604 -84.99045 37371 ft 422 kts 287°
2026-05-04 17:43 48.46506 -85.07355 37355 ft 422 kts 287°
2026-05-04 17:43 48.48418 -85.15723 37352 ft 422 kts 287°
2026-05-04 17:44 48.50321 -85.24099 37350 ft 422 kts 287°
2026-05-04 17:44 48.52216 -85.32475 37352 ft 422 kts 287°
2026-05-04 17:45 48.54105 -85.40856 37344 ft 422 kts 286°
2026-05-04 17:45 48.55990 -85.49237 37344 ft 422 kts 287°
2026-05-04 17:46 48.57880 -85.57637 37345 ft 422 kts 286°
2026-05-04 17:46 48.59756 -85.66054 37343 ft 423 kts 286°
2026-05-04 17:47 48.61609 -85.74438 37322 ft 423 kts 286°
2026-05-04 17:47 48.63474 -85.82883 37327 ft 423 kts 286°
2026-05-04 17:48 48.65336 -85.91332 37335 ft 424 kts 286°
2026-05-04 17:48 48.67191 -85.99792 37333 ft 424 kts 286°
2026-05-04 17:49 48.69038 -86.08274 37335 ft 424 kts 286°
2026-05-04 17:49 48.70870 -86.16700 37330 ft 424 kts 286°
2026-05-04 17:50 48.72712 -86.25205 37296 ft 425 kts 286°
2026-05-04 17:50 48.74474 -86.33753 37300 ft 424 kts 280°
2026-05-04 17:51 48.75623 -86.42503 37300 ft 424 kts 279°
2026-05-04 17:51 48.76746 -86.51277 37306 ft 424 kts 279°
2026-05-04 17:52 48.77852 -86.59991 37310 ft 423 kts 279°
2026-05-04 17:52 48.78972 -86.68769 37309 ft 423 kts 279°
2026-05-04 17:53 48.80081 -86.77533 37306 ft 423 kts 279°
2026-05-04 17:53 48.81178 -86.86290 37308 ft 423 kts 279°
2026-05-04 17:54 48.82266 -86.95060 37308 ft 423 kts 279°
2026-05-04 17:54 48.83363 -87.03840 37299 ft 423 kts 279°
2026-05-04 17:55 48.84443 -87.12544 37302 ft 422 kts 279°
2026-05-04 17:55 48.85511 -87.21306 37301 ft 422 kts 279°
2026-05-04 17:56 48.86574 -87.30082 37298 ft 422 kts 279°
2026-05-04 17:56 48.87637 -87.38869 37300 ft 422 kts 279°
2026-05-04 17:57 48.88692 -87.47645 37286 ft 423 kts 279°
2026-05-04 17:57 48.89744 -87.56451 37280 ft 423 kts 279°
2026-05-04 17:58 48.90785 -87.65270 37278 ft 424 kts 278°
2026-05-04 17:58 48.91818 -87.74102 37279 ft 424 kts 278°
2026-05-04 17:59 48.92838 -87.82877 37279 ft 424 kts 278°
2026-05-04 18:00 48.94375 -87.96152 37271 ft 425 kts 278°
2026-05-04 18:00 48.95400 -88.05012 37272 ft 425 kts 278°
2026-05-04 18:01 48.96410 -88.13886 37276 ft 426 kts 278°
2026-05-04 18:01 48.97401 -88.22712 37277 ft 426 kts 278°
2026-05-04 18:02 48.98893 -88.36056 37274 ft 426 kts 278°
2026-05-04 18:02 48.99887 -88.44969 37277 ft 427 kts 278°
2026-05-04 18:03 49.00868 -88.53894 37277 ft 427 kts 278°
2026-05-04 18:03 49.01830 -88.62781 37292 ft 427 kts 278°
2026-05-04 18:04 49.02801 -88.71712 37304 ft 427 kts 278°
2026-05-04 18:05 49.04254 -88.85128 37303 ft 427 kts 278°
2026-05-04 18:05 49.05207 -88.94068 37303 ft 427 kts 278°
2026-05-04 18:06 49.06622 -89.07480 37310 ft 427 kts 278°
2026-05-04 18:06 49.07555 -89.16418 37333 ft 426 kts 278°
2026-05-04 18:07 49.08471 -89.25294 37337 ft 426 kts 278°
2026-05-04 18:07 49.09389 -89.34221 37332 ft 425 kts 278°
2026-05-04 18:08 49.10304 -89.43149 37320 ft 425 kts 278°
2026-05-04 18:08 49.11205 -89.52070 37332 ft 425 kts 278°
2026-05-04 18:09 49.12997 -89.69928 37326 ft 425 kts 277°
2026-05-04 18:10 49.13874 -89.78852 37323 ft 425 kts 277°
2026-05-04 18:10 49.14744 -89.87721 37323 ft 425 kts 277°
2026-05-04 18:11 49.15620 -89.96660 37328 ft 425 kts 277°
2026-05-04 18:11 49.16478 -90.05606 37327 ft 425 kts 277°
2026-05-04 18:12 49.17335 -90.14541 37320 ft 425 kts 277°
2026-05-04 18:12 49.18183 -90.23496 37327 ft 425 kts 277°
2026-05-04 18:13 49.18881 -90.30930 37338 ft 425 kts 277°
2026-05-04 18:14 49.20129 -90.44373 37330 ft 425 kts 277°
2026-05-04 18:14 49.20953 -90.53318 37344 ft 425 kts 277°
2026-05-04 18:15 49.22586 -90.71232 37354 ft 425 kts 277°
2026-05-04 18:16 49.23381 -90.80124 37347 ft 425 kts 277°
2026-05-04 18:16 49.24174 -90.89081 37363 ft 425 kts 277°
2026-05-04 18:17 49.25356 -91.02515 37370 ft 424 kts 277°
2026-05-04 18:18 49.26529 -91.15957 37371 ft 424 kts 277°
2026-05-04 18:18 49.27295 -91.24928 37381 ft 424 kts 276°
2026-05-04 18:19 49.28438 -91.38375 37389 ft 424 kts 277°
2026-05-04 18:19 49.29186 -91.47333 37403 ft 424 kts 276°
2026-05-04 18:20 49.29932 -91.56239 37413 ft 424 kts 276°
2026-05-04 18:20 49.30664 -91.65217 37417 ft 425 kts 276°
2026-05-04 18:21 49.31382 -91.74207 37421 ft 425 kts 276°
2026-05-04 18:21 49.32115 -91.83192 37431 ft 425 kts 276°
2026-05-04 18:22 49.32837 -91.92181 37419 ft 425 kts 276°
2026-05-04 18:22 49.33545 -92.01183 37428 ft 425 kts 276°
2026-05-04 18:23 49.34250 -92.10182 37431 ft 425 kts 276°
2026-05-04 18:23 49.34938 -92.19115 37446 ft 425 kts 276°
2026-05-04 18:24 49.35626 -92.28114 37446 ft 425 kts 276°
2026-05-04 18:24 49.36305 -92.37111 37456 ft 425 kts 276°
2026-05-04 18:25 49.36982 -92.46118 37459 ft 424 kts 276°
2026-05-04 18:25 49.37657 -92.55119 37470 ft 424 kts 276°
2026-05-04 18:26 49.38315 -92.64115 37475 ft 424 kts 276°
2026-05-04 18:26 49.38963 -92.73114 37486 ft 424 kts 276°
2026-05-04 18:27 49.39604 -92.82052 37490 ft 424 kts 276°
2026-05-04 18:27 49.40250 -92.91052 37488 ft 424 kts 276°
2026-05-04 18:28 49.40879 -93.00045 37489 ft 423 kts 276°
2026-05-04 18:28 49.41504 -93.09043 37491 ft 423 kts 276°
2026-05-04 18:29 49.42123 -93.18041 37491 ft 423 kts 276°
2026-05-04 18:29 49.42731 -93.27024 37499 ft 423 kts 276°
2026-05-04 18:30 49.43618 -93.40434 37506 ft 422 kts 276°
2026-05-04 18:31 49.44205 -93.49408 37508 ft 422 kts 276°
2026-05-04 18:31 49.44794 -93.58385 37518 ft 422 kts 276°
2026-05-04 18:32 49.45377 -93.67370 37519 ft 422 kts 275°
2026-05-04 18:32 49.45943 -93.76294 37531 ft 421 kts 275°
2026-05-04 18:33 49.46504 -93.85261 37536 ft 422 kts 275°
2026-05-04 18:33 49.47059 -93.94253 37547 ft 422 kts 275°
2026-05-04 18:34 49.47601 -94.03250 37545 ft 423 kts 275°
2026-05-04 18:34 49.48088 -94.12267 37556 ft 423 kts 274°
2026-05-04 18:35 49.48478 -94.21301 37555 ft 423 kts 274°
2026-05-04 18:35 49.48849 -94.30289 37555 ft 423 kts 274°
2026-05-04 18:36 49.49231 -94.39320 37560 ft 423 kts 274°
2026-05-04 18:36 49.49618 -94.48362 37577 ft 423 kts 274°
2026-05-04 18:37 49.50000 -94.57407 37566 ft 423 kts 274°
2026-05-04 18:37 49.50187 -94.61916 37087 ft 421 kts 274°
2026-05-04 18:37 49.50368 -94.66399 36059 ft 418 kts 274°
2026-05-04 18:37 49.50545 -94.70874 34872 ft 419 kts 273°
2026-05-04 18:38 49.50719 -94.75290 33724 ft 419 kts 273°
2026-05-04 18:38 49.50895 -94.79755 32855 ft 416 kts 274°
2026-05-04 18:38 49.51067 -94.84158 32404 ft 408 kts 274°
2026-05-04 18:38 49.51236 -94.88476 31928 ft 400 kts 274°
2026-05-04 18:39 49.51399 -94.92684 31170 ft 389 kts 274°
2026-05-04 18:39 49.51558 -94.96818 30656 ft 383 kts 274°
2026-05-04 18:39 49.51713 -95.00865 30252 ft 375 kts 274°
2026-05-04 18:39 49.51862 -95.04840 29815 ft 367 kts 274°
2026-05-04 18:40 49.52006 -95.08710 28991 ft 361 kts 274°
2026-05-04 18:40 49.52150 -95.12550 28463 ft 356 kts 274°
2026-05-04 18:40 49.52289 -95.16327 27919 ft 352 kts 274°
2026-05-04 18:40 49.52424 -95.20063 27391 ft 348 kts 274°
2026-05-04 18:41 49.52552 -95.23761 26862 ft 344 kts 274°
2026-05-04 18:41 49.52678 -95.27415 26346 ft 340 kts 274°
2026-05-04 18:41 49.52806 -95.31043 25840 ft 337 kts 274°
2026-05-04 18:41 49.52933 -95.34630 25348 ft 334 kts 274°
2026-05-04 18:42 49.53058 -95.38175 24884 ft 331 kts 274°
2026-05-04 18:42 49.53178 -95.41698 24400 ft 328 kts 274°
2026-05-04 18:42 49.53292 -95.45145 23936 ft 325 kts 274°
2026-05-04 18:42 49.53407 -95.48602 23476 ft 322 kts 274°
2026-05-04 18:43 49.53522 -95.52035 22970 ft 320 kts 274°
2026-05-04 18:43 49.53634 -95.55448 22387 ft 318 kts 274°
2026-05-04 18:43 49.53744 -95.58845 21815 ft 317 kts 274°
2026-05-04 18:43 49.53858 -95.62236 21248 ft 317 kts 274°
2026-05-04 18:44 49.53973 -95.65617 20692 ft 316 kts 274°
2026-05-04 18:44 49.54047 -95.67859 20327 ft 316 kts 274°
2026-05-04 18:44 49.54185 -95.72380 19615 ft 316 kts 274°
2026-05-04 18:44 49.54287 -95.75753 19105 ft 316 kts 274°
2026-05-04 18:45 49.54398 -95.79123 18633 ft 314 kts 276°
2026-05-04 18:45 49.54784 -95.82368 18203 ft 311 kts 287°
2026-05-04 18:45 49.55546 -95.85465 17718 ft 309 kts 293°
2026-05-04 18:45 49.56396 -95.88505 17209 ft 308 kts 293°
2026-05-04 18:46 49.57238 -95.91535 16719 ft 307 kts 293°
2026-05-04 18:46 49.58070 -95.94553 16258 ft 305 kts 293°
2026-05-04 18:46 49.58896 -95.97556 15837 ft 303 kts 293°
2026-05-04 18:46 49.59716 -96.00535 15377 ft 302 kts 294°
2026-05-04 18:47 49.60536 -96.03515 14908 ft 302 kts 294°
2026-05-04 18:47 49.61353 -96.06492 14500 ft 300 kts 294°
2026-05-04 18:47 49.62161 -96.09438 14105 ft 297 kts 294°
2026-05-04 18:47 49.62965 -96.12367 13721 ft 295 kts 294°
2026-05-04 18:48 49.63760 -96.15267 13302 ft 293 kts 294°
2026-05-04 18:48 49.64554 -96.18159 12817 ft 292 kts 294°
2026-05-04 18:48 49.65340 -96.21029 12413 ft 289 kts 294°
2026-05-04 18:48 49.66117 -96.23874 11967 ft 287 kts 294°
2026-05-04 18:49 49.66886 -96.26696 11564 ft 284 kts 294°
2026-05-04 18:49 49.67648 -96.29499 11113 ft 283 kts 294°
2026-05-04 18:49 49.68408 -96.32301 10601 ft 284 kts 294°
2026-05-04 18:49 49.69165 -96.35106 10214 ft 280 kts 294°
2026-05-04 18:50 49.69908 -96.37856 9771 ft 271 kts 294°
2026-05-04 18:50 49.70615 -96.40477 9394 ft 263 kts 294°
2026-05-04 18:50 49.71306 -96.43045 8999 ft 261 kts 294°
2026-05-04 18:50 49.71999 -96.45617 8599 ft 258 kts 295°
2026-05-04 18:51 49.72684 -96.48158 8270 ft 253 kts 295°
2026-05-04 18:51 49.73355 -96.50650 7890 ft 250 kts 295°
2026-05-04 18:51 49.73876 -96.53221 7467 ft 252 kts 284°
2026-05-04 18:51 49.74095 -96.55891 7080 ft 251 kts 280°
2026-05-04 18:52 49.74291 -96.58573 6673 ft 249 kts 281°
2026-05-04 18:52 49.74485 -96.61231 6256 ft 248 kts 281°
2026-05-04 18:52 49.74677 -96.63871 5834 ft 246 kts 281°
2026-05-04 18:52 49.74866 -96.66494 5429 ft 244 kts 281°
2026-05-04 18:53 49.75050 -96.69091 5005 ft 242 kts 281°
2026-05-04 18:53 49.75231 -96.71635 4599 ft 240 kts 281°
2026-05-04 18:53 49.75410 -96.74188 4212 ft 238 kts 281°
2026-05-04 18:53 49.75589 -96.76722 3786 ft 236 kts 280°
2026-05-04 18:54 49.75765 -96.79243 3344 ft 234 kts 282°
2026-05-04 18:54 49.75936 -96.81725 2972 ft 231 kts 280°
2026-05-04 18:54 49.76105 -96.84203 2531 ft 230 kts 282°
2026-05-04 18:54 49.76272 -96.86625 2385 ft 220 kts 281°
2026-05-04 18:55 49.76426 -96.88884 2396 ft 202 kts 282°
2026-05-04 18:55 49.76703 -96.92920 2389 ft 175 kts 282°
2026-05-04 18:55 49.76825 -96.94736 2401 ft 169 kts 282°
2026-05-04 18:56 49.76941 -96.96452 2420 ft 152 kts 283°
2026-05-04 18:56 49.77041 -96.97982 2411 ft 131 kts 283°
2026-05-04 18:56 49.77130 -96.99331 2400 ft 122 kts 284°
2026-05-04 18:56 49.77219 -97.00622 2402 ft 119 kts 285°
2026-05-04 18:57 49.77305 -97.01868 2399 ft 115 kts 286°
2026-05-04 18:57 49.77393 -97.03102 2396 ft 115 kts 287°
2026-05-04 18:57 49.77481 -97.04332 2396 ft 115 kts 287°
2026-05-04 18:57 49.77586 -97.05541 2390 ft 114 kts 292°
2026-05-04 18:58 49.77892 -97.06650 2386 ft 111 kts 313°
2026-05-04 18:58 49.78467 -97.07469 2408 ft 114 kts 315°
2026-05-04 18:58 49.79027 -97.08339 2409 ft 115 kts 317°
2026-05-04 18:58 49.79613 -97.09195 2406 ft 116 kts 318°
2026-05-04 18:59 49.80207 -97.10036 2400 ft 116 kts 319°
2026-05-04 18:59 49.80807 -97.10872 2404 ft 116 kts 319°
2026-05-04 18:59 49.81410 -97.11705 2405 ft 117 kts 319°
2026-05-04 18:59 49.82017 -97.12537 2402 ft 116 kts 319°
2026-05-04 19:00 49.82620 -97.13363 2396 ft 115 kts 320°
2026-05-04 19:00 49.83230 -97.14196 2395 ft 117 kts 320°
2026-05-04 19:00 49.83834 -97.15021 2302 ft 115 kts 320°
2026-05-04 19:00 49.84442 -97.15851 2180 ft 117 kts 320°
2026-05-04 19:01 49.85048 -97.16678 2036 ft 117 kts 320°
2026-05-04 19:01 49.85644 -97.17492 1891 ft 114 kts 320°
2026-05-04 19:01 49.86241 -97.18307 1725 ft 115 kts 320°
2026-05-04 19:01 49.86845 -97.19133 1540 ft 116 kts 319°
2026-05-04 19:02 49.87449 -97.19957 1385 ft 114 kts 319°
2026-05-04 19:02 49.88054 -97.20783 1215 ft 116 kts 318°
2026-05-04 19:02 49.88659 -97.21610 1046 ft 117 kts 318°
2026-05-04 19:02 49.89268 -97.22441 907 ft 116 kts 319°
2026-05-04 19:03 49.89863 -97.23245 792 ft 106 kts 319°
2026-05-04 19:03 49.90274 -97.23809 785 ft 36 kts 318°
2026-05-04 19:03 49.90355 -97.23921 782 ft 13 kts 318°
2026-05-04 19:03 49.90422 -97.23991 784 ft 11 kts 354°
2026-05-04 19:04 49.90500 -97.23976 785 ft 12 kts 17°
2026-05-04 19:04 49.90605 -97.23935 787 ft 19 kts 11°
2026-05-04 19:04 49.90737 -97.23881 786 ft 21 kts 30°
2026-05-04 19:04 49.90817 -97.23685 784 ft 24 kts 78°
2026-05-04 19:05 49.90850 -97.23424 782 ft 23 kts 87°
2026-05-04 19:05 49.90795 -97.23306 780 ft 21 kts 157°
2026-05-04 19:05 49.90681 -97.23194 782 ft 18 kts 125°
2026-05-04 19:05 49.90610 -97.23039 782 ft 17 kts 121°
2026-05-04 19:06 49.90590 -97.22899 783 ft 8 kts 94°
2026-05-04 19:06 49.90583 -97.22846 783 ft 8 kts 105°
2026-05-04 19:06 49.90573 -97.22793 783 ft 0 kts 107°